DW5735 Weather Reports


Display with metric or nautical units.
time (UTC)temp
F
wind
direction
speed
MPH
gust
MPH
rain 1hr
in
rain 24hr
in
rain mn
in
humidity
%
barometer
mb
20260507101532 58 167 1.0 8.0 0.00 0.00 0.00 62 1013.2
20260507101348 59 167 1.0 8.0 0.00 0.00 0.00 62 1014.0
20260507100823 59 226 0.0 8.0 0.00 0.00 0.00 60 1013.9
20260507100331 59 213 1.0 8.0 0.00 0.00 0.00 59 1013.7
20260507100107 59 211 2.0 8.0 0.00 0.00 0.00 59 1012.8
20260507095818 59 219 0.0 3.0 0.00 0.00 0.00 58 1013.6
20260507095355 60 236 0.0 6.0 0.00 0.00 0.00 58 1013.7
20260507094834 60 167 0.0 9.0 0.00 0.00 0.00 58 1013.6
20260507094556 59 163 2.0 9.0 0.00 0.00 0.00 58 1012.8
20260507094340 60 146 0.0 3.0 0.00 0.00 0.00 57 1013.7
20260507093846 60 208 0.0 1.0 0.00 0.00 0.00 56 1013.5
20260507093333 60 139 0.0 1.0 0.00 0.00 0.00 56 1013.4
20260507093106 59 228 0.0 1.0 0.00 0.00 0.00 56 1012.6
20260507092854 60 95 0.0 5.0 0.00 0.00 0.00 56 1013.3
20260507092344 60 108 0.0 9.0 0.00 0.00 0.00 56 1013.3
20260507091820 60 91 0.0 9.0 0.00 0.00 0.00 58 1013.2
20260507091501 61 252 3.0 10.0 0.00 0.00 0.00 58 1012.3
20260507091325 61 208 1.0 12.0 0.00 0.00 0.00 54 1013.1
20260507090835 61 163 1.0 12.0 0.00 0.00 0.00 54 1013.0
20260507090327 61 163 1.0 9.0 0.00 0.00 0.00 54 1012.9
20260507090103 61 165 2.0 9.0 0.00 0.00 0.00 54 1012.0
20260507085854 61 164 2.0 7.0 0.00 0.00 0.00 54 1012.9
20260507085337 61 185 1.0 6.0 0.00 0.00 0.00 54 1012.8
20260507084824 61 194 1.0 10.0 0.00 0.00 0.00 54 1012.7
20260507084358 62 225 2.0 10.0 0.00 0.00 0.00 54 1012.6
20260507083820 62 204 2.0 8.0 0.00 0.00 0.00 54 1012.7
20260507083338 62 208 2.0 7.0 0.00 0.00 0.00 54 1012.6
20260507083104 61 214 2.0 6.0 0.00 0.00 0.00 54 1011.7
20260507082819 61 210 2.0 6.0 0.00 0.00 0.00 55 1012.6
20260507082339 61 198 1.0 6.0 0.00 0.00 0.00 56 1012.5
20260507081850 62 201 3.0 11.0 0.00 0.00 0.00 57 1012.5
20260507081606 61 204 3.0 11.0 0.00 0.00 0.00 56 1011.5
20260507081346 62 218 7.0 11.0 0.00 0.00 0.00 55 1012.3
20260507080828 62 190 4.0 9.0 0.00 0.00 0.00 54 1012.2
20260507080329 62 103 0.0 5.0 0.00 0.00 0.00 56 1012.3
20260507080137 61 197 1.0 5.0 0.00 0.00 0.00 56 1011.4
20260507075828 62 219 1.0 5.0 0.00 0.00 0.00 55 1012.3
20260507075338 62 193 2.0 10.0 0.00 0.00 0.00 55 1012.2
20260507074850 62 207 4.0 11.0 0.00 0.00 0.00 57 1012.1
20260507074604 62 224 3.0 11.0 0.00 0.00 0.00 58 1011.2
20260507074332 63 211 5.0 11.0 0.00 0.00 0.00 55 1012.1
20260507073843 62 232 2.0 11.0 0.00 0.00 0.00 53 1012.0
20260507073318 61 248 1.0 8.0 0.00 0.00 0.00 56 1012.1
20260507073006 60 204 0.0 5.0 0.00 0.00 0.00 57 1011.2
20260507072826 60 221 1.0 7.0 0.00 0.00 0.00 59 1012.0
20260507072322 59 203 1.0 8.0 0.00 0.00 0.00 68 1011.9
20260507071838 60 255 4.0 8.0 0.00 0.00 0.00 68 1011.8
20260507071618 60 252 6.0 8.0 0.00 0.00 0.00 66 1010.8
20260507071337 61 246 1.0 5.0 0.00 0.00 0.00 57 1011.7
20260507070822 60 203 0.0 0.0 0.00 0.00 0.00 62 1011.7
20260507070349 60 242 0.0 0.0 0.00 0.00 0.00 68 1011.7
20260507070004 60 255 0.0 0.0 0.00 0.00 0.00 67 1010.8
20260507065832 61 283 0.0 0.0 0.00 0.00 0.00 64 1011.7
20260507065323 61 103 0.0 0.0 0.00 0.00 0.00 62 1011.6
20260507064832 62 222 0.0 0.0 0.00 0.00 0.00 60 1011.6
20260507064605 61 224 0.0 1.0 0.00 0.00 0.00 60 1010.8
20260507064349 62 221 0.0 3.0 0.00 0.00 0.00 59 1011.6
20260507063828 62 44 0.0 6.0 0.00 0.00 0.00 64 1011.5
20260507063323 61 32 1.0 6.0 0.00 0.00 0.00 65 1011.5
20260507062818 61 44 0.0 0.0 0.00 0.00 0.00 63 1011.4
20260507062319 61 43 0.0 0.0 0.00 0.00 0.00 63 1011.3
20260507061838 61 149 0.0 0.0 0.00 0.00 0.00 63 1011.3
20260507061639 61 106 0.0 0.0 0.00 0.00 0.00 65 1010.4
20260507061324 62 81 0.0 0.0 0.00 0.00 0.00 65 1011.3
20260507060818 61 91 0.0 0.0 0.00 0.00 0.00 68 1011.3
20260507060324 61 19 0.0 0.0 0.00 0.00 0.00 67 1011.1
20260507060124 61 105 0.0 0.0 0.00 0.00 0.00 66 1010.2
20260507055822 62 103 0.0 0.0 0.00 0.00 0.00 66 1011.0
20260507055325 62 118 0.0 0.0 0.00 0.00 0.00 66 1011.1
20260507054608 62 101 0.0 0.0 0.00 0.00 0.00 65 1010.1
20260507054334 63 102 0.0 0.0 0.00 0.00 0.00 65 1011.0
20260507053847 63 184 0.0 0.0 0.00 0.00 0.00 64 1010.9
20260507053321 63 207 0.0 0.0 0.00 0.00 0.00 65 1010.8
20260507053059 63 191 0.0 0.0 0.00 0.00 0.00 65 1009.8
20260507052843 63 191 0.0 0.0 0.00 0.00 0.00 65 1010.7
20260507052334 63 191 0.0 0.0 0.00 0.00 0.00 64 1010.8
20260507051828 64 196 0.0 1.0 0.00 0.00 0.00 64 1010.6
20260507051559 63 213 0.0 5.0 0.00 0.00 0.00 64 1009.8
20260507051335 64 207 0.0 5.0 0.00 0.00 0.00 63 1010.7
20260507050900 64 257 2.0 5.0 0.00 0.00 0.00 63 1010.6
20260507050322 65 217 0.0 1.0 0.00 0.00 0.00 62 1010.4
20260507050107 64 204 0.0 3.0 0.00 0.00 0.00 62 1009.4
20260507045325 65 330 1.0 6.0 0.00 0.00 0.00 61 1010.4
20260507044818 65 359 3.0 6.0 0.00 0.00 0.00 61 1010.5
20260507044623 65 37 3.0 6.0 0.00 0.00 0.00 61 1009.6
20260507044319 65 26 5.0 6.0 0.00 0.00 0.00 61 1010.5
20260507043824 66 42 3.0 6.0 0.00 0.00 0.00 60 1010.4
20260507043340 66 44 2.0 5.0 0.00 0.00 0.00 61 1010.4
20260507043108 65 26 1.0 7.0 0.00 0.00 0.00 60 1009.5
20260507042829 65 34 2.0 7.0 0.00 0.00 0.00 61 1010.5
20260507042320 65 31 6.0 7.0 0.00 0.00 0.00 62 1010.3
20260507041608 65 80 1.0 9.0 0.00 0.00 0.00 61 1009.5
20260507040829 66 31 6.0 11.0 0.00 0.00 0.00 61 1010.3
20260507040357 66 7 8.0 11.0 0.00 0.00 0.00 59 1010.2
20260507040104 66 359 5.0 8.0 0.00 0.00 0.00 59 1009.1
20260507035838 66 16 4.0 7.0 0.00 0.00 0.00 59 1009.9
20260507035334 67 40 1.0 5.0 0.00 0.00 0.00 57 1009.9
20260507034835 67 126 1.0 4.0 0.00 0.00 0.00 56 1009.8
20260507034615 67 96 1.0 4.0 0.00 0.00 0.00 56 1008.8
20260507034323 67 99 1.0 5.0 0.00 0.00 0.00 55 1009.8
20260507033842 68 60 0.0 5.0 0.00 0.00 0.00 55 1009.8
20260507033322 68 82 1.0 9.0 0.00 0.00 0.00 54 1009.8
20260507033106 68 44 1.0 9.0 0.00 0.00 0.00 54 1008.7
20260507032817 68 127 2.0 9.0 0.00 0.00 0.00 53 1009.6
20260507032340 69 88 5.0 9.0 0.00 0.00 0.00 52 1009.5
20260507031840 69 58 1.0 4.0 0.00 0.00 0.00 50 1009.3
20260507031606 69 82 1.0 5.0 0.00 0.00 0.00 50 1008.3
20260507031321 69 71 0.0 3.0 0.00 0.00 0.00 50 1009.3
20260507030836 70 94 0.0 2.0 0.00 0.00 0.00 49 1009.2
20260507030357 70 79 0.0 5.0 0.00 0.00 0.00 48 1009.1
20260507030110 70 34 0.0 5.0 0.00 0.00 0.00 48 1008.1
20260507025839 70 47 2.0 6.0 0.00 0.00 0.00 48 1009.1
20260507025343 70 80 0.0 6.0 0.00 0.00 0.00 48 1009.0
20260507024818 71 89 2.0 16.0 0.00 0.00 0.00 48 1009.0
20260507024515 70 81 1.0 16.0 0.00 0.00 0.00 47 1007.9
20260507024338 71 76 4.0 16.0 0.00 0.00 0.00 47 1008.9
20260507023903 71 23 7.0 12.0 0.00 0.00 0.00 46 1008.4
20260507023328 72 34 6.0 11.0 0.00 0.00 0.00 43 1008.4
20260507023007 72 25 8.0 12.0 0.00 0.00 0.00 42 1007.5
20260507022832 72 11 9.0 12.0 0.00 0.00 0.00 43 1008.5
20260507022339 72 321 7.0 12.0 0.00 0.00 0.00 43 1008.7
20260507021820 70 15 2.0 10.0 0.00 0.00 0.00 47 1008.6
20260507021605 70 330 4.0 14.0 0.00 0.00 0.00 48 1007.6
20260507021320 70 331 5.0 19.0 0.00 0.00 0.00 48 1008.7
20260507020828 71 277 10.0 20.0 0.00 0.00 0.00 47 1008.8
20260507020339 72 309 10.0 21.0 0.00 0.00 0.00 46 1008.8
20260507020105 72 302 11.0 21.0 0.00 0.00 0.00 45 1007.9
20260507015817 73 325 11.0 21.0 0.00 0.00 0.00 43 1008.9
20260507015338 74 354 10.0 16.0 0.00 0.00 0.00 41 1008.7
20260507014849 73 12 4.0 18.0 0.00 0.00 0.00 39 1008.2
20260507014509 72 256 12.0 18.0 0.00 0.00 0.00 38 1006.8
20260507014329 72 248 14.0 18.0 0.00 0.00 0.00 41 1007.7
20260507013826 73 246 9.0 22.0 0.00 0.00 0.00 44 1007.2
20260507013351 74 249 18.0 24.0 0.00 0.00 0.00 39 1007.0
20260507013106 74 255 18.0 26.0 0.00 0.00 0.00 38 1005.8
20260507012817 75 239 17.0 26.0 0.00 0.00 0.00 39 1006.8
20260507012338 75 270 19.0 25.0 0.00 0.00 0.00 37 1006.7
20260507011825 75 262 19.0 25.0 0.00 0.00 0.00 39 1006.5
20260507011602 75 246 18.0 26.0 0.00 0.00 0.00 37 1005.4
20260507011330 75 252 16.0 26.0 0.00 0.00 0.00 38 1006.4
20260507010825 76 238 19.0 26.0 0.00 0.00 0.00 36 1006.3
20260507010326 75 246 11.0 18.0 0.00 0.00 0.00 39 1006.4
20260507005828 75 253 12.0 18.0 0.00 0.00 0.00 39 1006.3
20260507005320 76 232 7.0 11.0 0.00 0.00 0.00 40 1006.3
20260507004822 76 250 7.0 12.0 0.00 0.00 0.00 37 1006.3
20260507004609 76 225 5.0 12.0 0.00 0.00 0.00 36 1005.2
20260507004330 75 217 6.0 12.0 0.00 0.00 0.00 38 1006.3
20260507003828 73 239 4.0 7.0 0.00 0.00 0.00 45 1006.2
20260507003326 72 250 7.0 10.0 0.00 0.00 0.00 45 1006.4
20260507003101 72 246 4.0 11.0 0.00 0.00 0.00 49 1005.2
20260507002841 73 246 6.0 12.0 0.00 0.00 0.00 47 1006.3
20260507002341 73 261 10.0 14.0 0.00 0.00 0.00 43 1006.2
20260507001838 73 259 8.0 15.0 0.00 0.00 0.00 46 1006.3
20260507001614 74 260 12.0 15.0 0.00 0.00 0.00 43 1005.2
20260507001330 77 248 10.0 15.0 0.00 0.00 0.00 40 1006.2
20260507000833 78 228 10.0 18.0 0.00 0.00 0.00 31 1006.2
20260507000337 77 232 10.0 18.0 0.00 0.00 0.00 38 1006.2
20260507000104 77 208 11.0 18.0 0.00 0.00 0.00 35 1005.2
20260506235851 77 235 10.0 15.0 0.00 0.00 0.00 35 1006.2
20260506235319 74 236 3.0 8.0 0.00 0.00 0.00 46 1006.2
20260506234841 78 259 7.0 9.0 0.00 0.00 0.00 36 1006.3
20260506234639 78 249 5.0 10.0 0.00 0.00 0.00 34 1005.3
20260506234318 78 214 6.0 10.0 0.00 0.00 0.00 34 1006.3
20260506233818 77 235 6.0 13.0 0.00 0.00 0.00 35 1006.3
20260506233321 76 207 5.0 13.0 0.00 0.00 0.00 41 1006.3
20260506233112 75 193 8.0 13.0 0.00 0.00 0.00 45 1005.2
20260506232856 77 284 7.0 12.0 0.00 0.00 0.00 41 1006.3
20260506232329 76 232 6.0 12.0 0.00 0.00 0.00 43 1006.3
20260506231823 79 221 7.0 10.0 0.00 0.00 0.00 33 1006.3
20260506231601 79 221 2.0 6.0 0.00 0.00 0.00 33 1005.3
20260506231333 79 210 1.0 5.0 0.00 0.00 0.00 34 1006.4
20260506230820 75 174 3.0 5.0 0.00 0.00 0.00 39 1006.4
20260506230339 72 228 2.0 6.0 0.00 0.00 0.00 53 1006.5
20260506230105 72 257 1.0 6.0 0.00 0.00 0.00 55 1005.6
20260506225847 73 235 5.0 6.0 0.00 0.00 0.00 46 1006.7
20260506225322 74 268 2.0 5.0 0.00 0.00 0.00 42 1006.6
20260506224824 74 229 2.0 5.0 0.00 0.00 0.00 53 1006.8
20260506224320 77 224 0.0 4.0 0.00 0.00 0.00 41 1006.9
20260506223831 75 226 2.0 5.0 0.00 0.00 0.00 42 1006.9
20260506223332 74 226 4.0 5.0 0.00 0.00 0.00 47 1007.1
20260506223054 74 224 3.0 5.0 0.00 0.00 0.00 47 1006.1
20260506222838 74 245 2.0 4.0 0.00 0.00 0.00 44 1007.2
20260506222322 73 211 2.0 5.0 0.00 0.00 0.00 46 1007.4
20260506221834 73 226 4.0 5.0 0.00 0.00 0.00 51 1007.4
20260506221513 73 242 2.0 4.0 0.00 0.00 0.00 45 1006.4
20260506221334 73 240 3.0 4.0 0.00 0.00 0.00 47 1007.5
20260506220830 75 232 2.0 4.0 0.00 0.00 0.00 46 1007.6
20260506220340 75 231 3.0 4.0 0.00 0.00 0.00 46 1007.6
20260506220108 74 215 2.0 4.0 0.00 0.00 0.00 45 1006.6
20260506215834 75 226 3.0 4.0 0.00 0.00 0.00 44 1007.6
20260506215319 76 239 0.0 1.0 0.00 0.00 0.00 39 1007.8
20260506214855 76 242 0.0 2.0 0.00 0.00 0.00 40 1007.9
20260506214608 75 235 0.0 2.0 0.00 0.00 0.00 40 1007.0
20260506214319 75 236 1.0 3.0 0.00 0.00 0.00 41 1008.1
20260506213829 75 247 1.0 4.0 0.00 0.00 0.00 43 1008.1
20260506213331 74 226 2.0 3.0 0.00 0.00 0.00 45 1008.2
20260506213003 73 214 1.0 2.0 0.00 0.00 0.00 46 1007.3
20260506212827 73 240 1.0 3.0 0.00 0.00 0.00 45 1008.3
20260506212328 73 248 1.0 4.0 0.00 0.00 0.00 47 1008.3
20260506211832 73 253 3.0 4.0 0.00 0.00 0.00 47 1008.4
20260506211516 72 238 3.0 4.0 0.00 0.00 0.00 45 1007.6
20260506211335 72 221 3.0 4.0 0.00 0.00 0.00 46 1008.5
20260506210839 73 233 1.0 3.0 0.00 0.00 0.00 47 1008.5
20260506210330 72 232 1.0 4.0 0.00 0.00 0.00 46 1008.6
20260506210119 71 229 0.0 4.0 0.00 0.00 0.00 48 1007.7
20260506205825 72 226 1.0 5.0 0.00 0.00 0.00 48 1008.7
20260506205318 72 221 1.0 5.0 0.00 0.00 0.00 45 1008.7
20260506204824 74 231 0.0 5.0 0.00 0.00 0.00 42 1008.8
20260506204555 74 210 0.0 0.0 0.00 0.00 0.00 39 1007.9
20260506204343 74 246 0.0 0.0 0.00 0.00 0.00 39 1008.8
20260506203828 74 246 0.0 0.0 0.00 0.00 0.00 39 1008.8
20260506203333 74 246 0.0 0.0 0.00 0.00 0.00 39 1008.9
20260506202831 72 245 0.0 0.0 0.00 0.00 0.00 40 1008.9
20260506202338 71 245 0.0 0.0 0.00 0.00 0.00 41 1009.0
20260506201829 70 218 0.0 0.0 0.00 0.00 0.00 43 1009.1
20260506201557 69 267 0.0 0.0 0.00 0.00 0.00 42 1008.2
20260506201336 69 266 0.0 0.0 0.00 0.00 0.00 43 1009.2
20260506200835 69 226 0.0 0.0 0.00 0.00 0.00 42 1009.2
20260506200343 70 271 0.0 0.0 0.00 0.00 0.00 39 1009.4
20260506195820 70 269 0.0 0.0 0.00 0.00 0.00 41 1009.5
20260506195329 69 269 0.0 0.0 0.00 0.00 0.00 42 1009.5
20260506194825 68 261 0.0 0.0 0.00 0.00 0.00 43 1009.6
20260506194555 67 261 0.0 0.0 0.00 0.00 0.00 43 1008.7
20260506194323 67 264 0.0 0.0 0.00 0.00 0.00 42 1009.7
20260506193832 68 256 0.0 0.0 0.00 0.00 0.00 42 1009.8
20260506193333 68 239 0.0 0.0 0.00 0.00 0.00 42 1009.8
20260506193107 67 232 0.0 0.0 0.00 0.00 0.00 42 1008.9
20260506192827 67 232 0.0 0.0 0.00 0.00 0.00 44 1009.9
20260506192323 66 241 0.0 0.0 0.00 0.00 0.00 44 1010.0
20260506191823 66 239 0.0 0.0 0.00 0.00 0.00 44 1010.0
20260506191606 65 246 0.0 0.0 0.00 0.00 0.00 44 1009.2
20260506191319 65 241 0.0 0.0 0.00 0.00 0.00 43 1010.2
20260506190822 64 216 0.0 0.0 0.00 0.00 0.00 46 1010.3
20260506190336 64 256 0.0 0.0 0.00 0.00 0.00 47 1010.3
20260506190108 64 264 0.0 0.0 0.00 0.00 0.00 47 1009.3
20260506185848 63 219 0.0 0.0 0.00 0.00 0.00 51 1010.3
20260506185336 62 238 0.0 0.0 0.00 0.00 0.00 63 1010.4
20260506184832 62 251 0.0 0.0 0.00 0.00 0.00 54 1010.4
20260506184513 62 239 0.0 0.0 0.00 0.00 0.00 63 1009.5
20260506184335 62 246 0.0 0.0 0.00 0.00 0.00 63 1010.4
20260506183830 63 221 0.0 0.0 0.00 0.00 0.00 57 1010.5
20260506183336 63 235 0.0 1.0 0.00 0.00 0.00 49 1010.6
20260506183112 62 232 0.0 3.0 0.00 0.00 0.00 50 1009.7
20260506182907 62 232 0.0 3.0 0.00 0.00 0.00 51 1010.7
20260506182323 62 235 1.0 4.0 0.00 0.00 0.00 62 1010.7
20260506181832 62 246 0.0 3.0 0.00 0.00 0.00 54 1010.8
20260506181604 62 225 0.0 3.0 0.00 0.00 0.00 56 1010.0
20260506181352 63 231 1.0 4.0 0.00 0.00 0.00 54 1010.9
20260506180824 62 236 0.0 4.0 0.00 0.00 0.00 51 1010.9
20260506180335 62 238 1.0 5.0 0.00 0.00 0.00 45 1011.1
20260506180104 62 242 0.0 5.0 0.00 0.00 0.00 51 1010.1
20260506174824 62 208 0.0 4.0 0.00 0.00 0.00 54 1011.0
20260506174614 63 250 2.0 4.0 0.00 0.00 0.00 57 1010.3
20260506174332 64 235 0.0 1.0 0.00 0.00 0.00 51 1011.1
20260506173827 66 267 0.0 0.0 0.00 0.00 0.00 44 1011.3
20260506173319 65 249 0.0 0.0 0.00 0.00 0.00 45 1011.3
20260506173100 63 249 0.0 0.0 0.00 0.00 0.00 46 1010.4
20260506172819 63 249 0.0 0.0 0.00 0.00 0.00 47 1011.4
20260506172347 62 246 0.0 0.0 0.00 0.00 0.00 47 1011.5
20260506171820 61 242 0.0 0.0 0.00 0.00 0.00 48 1011.6
20260506171611 60 236 0.0 0.0 0.00 0.00 0.00 48 1010.8
20260506171344 60 219 0.0 0.0 0.00 0.00 0.00 49 1011.7
20260506170822 59 232 0.0 0.0 0.00 0.00 0.00 52 1011.7
20260506170320 58 232 0.0 3.0 0.00 0.00 0.00 61 1011.8
20260506170105 58 246 0.0 3.0 0.00 0.00 0.00 61 1010.9
20260506165817 58 225 0.0 3.0 0.00 0.00 0.00 58 1011.7
20260506165322 58 248 0.0 3.0 0.00 0.00 0.00 63 1011.8
20260506164852 58 243 0.0 3.0 0.00 0.00 0.00 61 1011.9
20260506164609 57 236 0.0 1.0 0.00 0.00 0.00 68 1011.0
20260506164321 57 229 0.0 1.0 0.00 0.00 0.00 72 1011.9
20260506163835 57 242 0.0 3.0 0.00 0.00 0.00 69 1012.0
20260506163138 57 246 0.0 3.0 0.00 0.00 0.00 65 1011.1
20260506162844 57 219 1.0 3.0 0.00 0.00 0.00 63 1012.0
20260506162320 57 239 0.0 0.0 0.00 0.00 0.00 62 1012.1
20260506161829 57 224 0.0 0.0 0.00 0.00 0.00 69 1012.1
20260506161559 56 246 0.0 0.0 0.00 0.00 0.00 68 1011.2
20260506161335 57 243 0.0 0.0 0.00 0.00 0.00 65 1012.0
20260506160837 57 243 0.0 2.0 0.00 0.00 0.00 67 1012.2
20260506160339 57 222 0.0 2.0 0.00 0.00 0.00 63 1012.2
20260506160114 56 232 0.0 2.0 0.00 0.00 0.00 66 1011.3
20260506155822 57 253 0.0 1.0 0.00 0.00 0.00 67 1012.2
20260506155336 57 231 0.0 0.0 0.00 0.00 0.00 66 1012.2
20260506154835 57 235 0.0 0.0 0.00 0.00 0.00 64 1012.3
20260506154600 56 239 0.0 0.0 0.00 0.00 0.00 63 1011.5
20260506154321 56 246 0.0 0.0 0.00 0.00 0.00 63 1012.4
20260506153852 56 238 0.0 0.0 0.00 0.00 0.00 67 1012.4
20260506153323 56 246 0.0 0.0 0.00 0.00 0.00 65 1012.5
20260506153136 55 219 0.0 0.0 0.00 0.00 0.00 67 1011.6
20260506152900 56 239 0.0 0.0 0.00 0.00 0.00 67 1012.5
20260506152332 55 242 0.0 1.0 0.00 0.00 0.00 69 1012.5
20260506151823 55 241 0.0 3.0 0.00 0.00 0.00 70 1012.6
20260506151556 55 246 0.0 3.0 0.00 0.00 0.00 69 1011.8
20260506151334 56 243 2.0 3.0 0.00 0.00 0.00 70 1012.7
20260506150825 56 242 0.0 3.0 0.00 0.00 0.00 67 1012.6
20260506150337 57 232 0.0 3.0 0.00 0.00 0.00 65 1012.6
20260506145838 57 340 0.0 0.0 0.00 0.00 0.00 61 1012.7
20260506145320 57 15 0.0 0.0 0.00 0.00 0.00 60 1012.6
20260506144857 56 9 0.0 0.0 0.00 0.00 0.00 60 1012.6
20260506144508 56 26 0.0 0.0 0.00 0.00 0.00 61 1011.8
20260506144318 56 27 0.0 0.0 0.00 0.00 0.00 60 1012.6
20260506143820 55 27 0.0 0.0 0.00 0.00 0.00 62 1012.6
20260506143330 55 31 0.0 0.0 0.00 0.00 0.00 63 1012.7
20260506143111 54 50 0.0 0.0 0.00 0.00 0.00 66 1011.9
20260506142821 55 27 0.0 0.0 0.00 0.00 0.00 67 1012.7
20260506142346 55 34 0.0 0.0 0.00 0.00 0.00 63 1012.7
20260506141838 54 34 0.0 0.0 0.00 0.00 0.00 66 1012.8
20260506141608 53 36 0.0 0.0 0.00 0.00 0.00 67 1012.0
20260506141319 54 27 0.0 0.0 0.00 0.00 0.00 64 1012.9
20260506140838 55 29 0.0 0.0 0.00 0.00 0.00 63 1012.9
20260506140348 55 40 0.0 0.0 0.00 0.00 0.00 59 1012.9
20260506140059 55 40 0.0 0.0 0.00 0.00 0.00 59 1012.1
20260506135836 56 42 0.0 0.0 0.00 0.00 0.00 57 1012.8
20260506135340 57 142 0.0 0.0 0.00 0.00 0.00 58 1012.7
20260506134833 56 231 0.0 0.0 0.00 0.00 0.00 60 1012.8
20260506134604 55 231 0.0 0.0 0.00 0.00 0.00 61 1012.0
20260506134351 55 231 0.0 0.0 0.00 0.00 0.00 62 1012.7
20260506133820 54 232 0.0 0.0 0.00 0.00 0.00 65 1012.7
20260506133346 54 233 0.0 0.0 0.00 0.00 0.00 63 1012.6
20260506133112 54 262 0.0 0.0 0.00 0.00 0.00 61 1011.8
20260506132830 55 236 0.0 0.0 0.00 0.00 0.00 59 1012.5
20260506132349 54 64 0.0 0.0 0.00 0.00 0.00 59 1012.4
20260506131854 53 84 0.0 0.0 0.00 0.00 0.00 60 1012.4
20260506131608 52 80 0.0 0.0 0.00 0.00 0.00 61 1011.5
20260506131328 52 60 0.0 0.0 0.00 0.00 0.00 61 1012.3
20260506130826 52 89 0.0 0.0 0.00 0.00 0.00 62 1012.3
20260506130324 52 89 0.0 0.0 0.00 0.00 0.00 64 1012.2
20260506130056 52 89 0.0 0.0 0.00 0.00 0.00 64 1011.4
20260506125830 52 89 0.0 0.0 0.00 0.00 0.00 61 1012.2
20260506125356 51 89 0.0 0.0 0.00 0.00 0.00 61 1012.2
20260506124838 51 80 0.0 0.0 0.00 0.00 0.00 61 1012.2
20260506124612 51 80 0.0 0.0 0.00 0.00 0.00 62 1011.3
20260506124318 51 79 0.0 0.0 0.00 0.00 0.00 64 1012.2
20260506123822 51 79 0.0 0.0 0.00 0.00 0.00 63 1012.1
20260506123330 52 66 0.0 0.0 0.00 0.00 0.00 64 1012.0
20260506123114 52 43 0.0 0.0 0.00 0.00 0.00 64 1011.1
20260506122829 53 75 0.0 0.0 0.00 0.00 0.00 60 1012.0
20260506122327 53 76 0.0 0.0 0.00 0.00 0.00 57 1012.0
20260506121858 53 70 0.0 0.0 0.00 0.00 0.00 58 1011.9
20260506121615 52 60 0.0 0.0 0.00 0.00 0.00 59 1011.0
20260506121319 53 46 0.0 0.0 0.00 0.00 0.00 59 1011.9
20260506120839 53 37 0.0 0.0 0.00 0.00 0.00 59 1011.8
20260506120325 53 37 0.0 0.0 0.00 0.00 0.00 60 1011.8
20260506120101 53 52 0.0 0.0 0.00 0.00 0.00 59 1011.0
20260506115832 53 86 0.0 0.0 0.00 0.00 0.00 59 1011.8
20260506115339 53 84 0.0 0.0 0.00 0.00 0.00 59 1011.9
20260506114856 53 90 0.0 0.0 0.00 0.00 0.00 61 1011.8
20260506114600 52 47 0.0 0.0 0.00 0.00 0.00 65 1011.0
20260506114322 53 25 0.0 0.0 0.00 0.00 0.00 58 1011.8
20260506113852 54 23 0.0 0.0 0.00 0.00 0.00 60 1011.7
20260506113341 54 88 0.0 0.0 0.00 0.00 0.00 56 1011.7
20260506113101 54 40 0.0 0.0 0.00 0.00 0.00 55 1010.9
20260506112851 54 91 0.0 0.0 0.00 0.00 0.00 54 1011.8
20260506112334 54 91 0.0 0.0 0.00 0.00 0.00 54 1011.8
20260506111830 54 56 0.0 0.0 0.00 0.00 0.00 54 1011.8
20260506111555 54 56 0.0 0.0 0.00 0.00 0.00 54 1010.9
20260506111357 55 56 0.0 2.0 0.00 0.00 0.00 54 1011.7
20260506110846 55 79 0.0 3.0 0.00 0.00 0.00 54 1011.7
20260506110347 55 96 0.0 3.0 0.00 0.00 0.00 54 1011.6
20260506110106 54 105 0.0 0.0 0.00 0.00 0.00 54 1010.8
20260506105856 55 93 0.0 0.0 0.00 0.00 0.00 53 1011.6
20260506105331 55 85 0.0 0.0 0.00 0.00 0.00 53 1011.4
20260506104835 55 84 0.0 0.0 0.00 0.00 0.00 53 1011.4
20260506104609 54 89 0.0 0.0 0.00 0.00 0.00 53 1010.6
20260506104320 55 72 0.0 0.0 0.00 0.00 0.00 53 1011.4
20260506103822 55 43 0.0 0.0 0.00 0.00 0.00 53 1011.4
20260506103339 56 82 0.0 0.0 0.00 0.00 0.00 51 1011.3
20260506103104 55 89 0.0 0.0 0.00 0.00 0.00 51 1010.5
20260506102831 56 89 0.0 0.0 0.00 0.00 0.00 52 1011.4
20260506102319 55 96 0.0 0.0 0.00 0.00 0.00 52 1011.3
20260506101826 54 94 0.0 0.0 0.00 0.00 0.00 54 1011.4